Location: Arroyo Retuerta
(40.5469°N, 4.3534°W)
Time: 06:07:17
(UTC+00:00)

Abrixas rocket - Pass Details

Date: 01 June 2020
Orbit: 343 x 348 km, 48.4° (Epoch: 05 July)

Event Time Altitude Azimuth Distance (km) Brightness Sun altitude
Rises 20:42:15 0° 303° (WNW) 2,168 8.0 -10.1°
Reaches altitude 10° 20:44:32 10° 318° (NW) 1,322 6.4 -10.4°
Maximum altitude 20:46:58 23° 14° (NNE) 812 4.0 -10.7°
Drops below altitude 10° 20:49:25 10° 70° (ENE) 1,317 4.5 -11.1°
Enters shadow 20:50:05 - 76° (ENE) 1,553 4.8 -11.2°
